Location: Wagman Observatory
(40.6260°N, 79.8130°W)
Time: 08:14:48
(UTC-05:00)

Daily predictions for brighter satellites

Satellite Brightness Start Highest point End
(mag) Time Altitude Azimuth Time Altitude Azimuth Time Altitude Azimuth
COSMOS 2428 3.5 17:42:04 10° SW 17:47:39 54° WNW 17:53:15 10° NNE
SL-16 R/B 3.4 17:45:47 10° SSE 17:50:02 22° E 17:54:19 10° NE
Cosmos 1300 3.2 17:46:36 10° N 17:50:13 38° ENE 17:53:47 10° SSE
Cosmos 1340 Rocket 4.1 17:47:29 10° SE 17:50:29 21° E 17:53:29 10° NE
SL-14 R/B 3.8 17:48:03 10° SSE 17:51:41 37° E 17:55:22 10° NNE
Cosmos 1634 Rocket 4.0 17:45:39 10° N 17:51:48 63° E 17:57:52 10° SSE
Abrixas 2.6 17:49:46 10° SW 17:52:38 57° SE 17:55:31 10° ENE
Cosmos 1461 4.4 17:50:27 10° SSE 17:53:32 20° ESE 17:56:34 10° ENE
Cosmos 2058 3.7 17:50:47 10° SSE 17:54:23 30° E 17:58:00 10° NNE
Cosmos 1484 Rocket 3.2 17:51:41 10° SE 17:55:23 42° ENE 17:59:11 10° N
CZ-4 R/B 4.4 17:55:10 10° SSE 17:59:16 70° ENE 18:03:25 10° N
Cosmos 2297 4.4 17:56:15 10° N 18:01:18 31° ENE 18:06:21 10° ESE
Lacrosse 5 4.0 18:03:47 10° NW 18:06:24 14° NNW 18:09:02 10° NNE
Cosmos 1844 Rocket 3.8 18:03:01 10° NW 18:08:29 49° WSW 18:13:51 10° S
Meteor 1-28 Rocket 3.7 18:11:52 10° NNE 18:15:20 36° E 18:18:47 10° SSE
OTV 4 2.8 18:13:05 10° WSW 18:15:27 21° SSW 18:17:48 10° SSE
Cosmos 1125 Rocket 3.6 18:11:02 10° NNW 18:16:15 84° WSW 18:21:26 10° SSE
Transit 2A Rocket 4.5 18:12:12 10° NNW 18:16:30 60° ENE 18:20:45 10° SE
Meteor 2-10 4.0 18:12:25 10° N 18:17:27 57° ENE 18:22:37 10° SSE
CENTAUR R/B 3.9 18:11:55 10° WSW 18:17:34 35° NW 18:23:55 10° NNE
CZ-2C R/B 3.8 18:12:51 10° S 18:17:36 44° W 18:22:14 10° NNW
YAOGAN 1 3.5 18:14:52 10° S 18:19:04 52° W 18:23:19 10° NNW
Cosmos 1707 Rocket 4.3 18:15:53 10° NNE 18:19:40 29° ENE 18:23:26 10° SE
COSMO-SKYMED 1 2.5 18:15:34 10° NNE 18:19:54 66° E 18:24:13 10° S
Thor Agena Rocket 4.2 18:19:21 10° N 18:24:31 59° WNW 18:29:34 10° SSW
MSX 4.4 18:21:11 10° S 18:26:49 61° W 18:32:30 10° NNW
Resurs 01 Rocket 3.0 18:26:17 16° E 18:27:36 18° ENE 18:30:37 10° NNE
Lacrosse 5 rocket 1.1 18:25:48 10° NW 18:29:36 81° NE 18:33:37 10° SE
Meteor 1-11 4.2 18:24:04 10° S 18:29:44 81° E 18:35:31 10° NNE
Cosmos 1666 Rocket 4.2 18:26:06 10° SSE 18:29:57 32° E 18:33:50 10° NNE
Cosmos 1980 4.1 18:25:27 10° SW 18:31:05 65° WNW 18:36:45 10° NNE
Timation 1 Rocket 4.3 18:26:46 10° NNW 18:32:45 62° ENE 18:38:41 10° SE
METEOR-M 4.3 18:28:12 10° SE 18:33:18 47° ENE 18:38:26 10° N
Cosmos 1184 Rocket 4.0 18:30:39 10° SE 18:33:17 22° E 18:33:17 22° E
Cosmos 1538 Rocket 4.3 18:31:00 10° S 18:35:59 44° ESE 18:40:44 12° NNE
Cosmos 2151 3.5 18:32:12 10° SSW 18:36:20 59° W 18:40:30 10° N
Iridium 4 Rocket 4.1 18:35:45 10° SE 18:39:20 24° E 18:39:48 23° ENE
Cosmos 2279 Rocket 4.0 18:34:16 10° N 18:40:32 88° E 18:46:46 10° S
Cosmos 44 4.3 18:38:37 10° SW 18:43:40 46° NW 18:48:30 10° NNE
ALOS 3.0 18:42:30 10° SE 18:46:34 31° ENE 18:50:39 10° N
NOAA 12 4.0 18:44:12 10° SSE 18:49:23 72° ENE 18:54:39 10° N
Cosmos 2333 Rocket 3.5 18:45:14 10° SW 18:50:28 38° WNW 18:55:44 10° N
Cosmos 2219 Rocket 3.9 18:46:56 10° WSW 18:51:50 30° WNW 18:56:45 10° N
Cosmos 1626 2.0 18:50:18 10° S 18:54:01 69° E 18:56:50 17° NNE
SJ-6B 2.8 18:54:21 10° SSE 18:58:23 70° ENE 19:02:31 10° N
Nadezhda 4 Rocket 3.9 18:53:45 10° S 18:59:55 68° E 19:06:12 10° NNE
Aureole 2 Rocket 4.1 18:56:38 10° SW 19:00:09 38° WNW 19:03:58 10° N
Cosmos 2242 Rocket 3.9 18:56:35 10° N 19:00:47 41° ENE 19:04:59 10° SSE
Cosmos 1703 3.5 18:58:30 10° SSW 19:02:23 68° W 19:06:16 10° N
Cosmos 2278 Rocket 3.6 18:57:34 10° NW 19:02:50 40° WSW 19:08:04 10° S
Cosmos 1455 2.0 19:02:38 10° N 19:06:27 73° E 19:10:15 10° SSE
FAST Rocket 4.1 19:04:01 10° SSW 19:06:37 68° W 19:06:50 63° NW
Cosmos 1805 Rocket 4.1 19:03:59 10° SSW 19:08:23 62° W 19:12:50 10° N
SL-19 R/B 4.2 19:07:06 10° SSE 19:12:58 69° ENE 19:18:34 10° N
Lacrosse 4 Rocket 2.7 19:10:01 10° NNW 19:12:09 25° N 19:12:09 25° N
Cosmos 773 Rocket 3.8 19:12:07 10° S 19:17:14 70° ESE 19:19:20 36° NNE
FREGAT/IRIS 3.3 19:15:36 10° S 19:18:36 55° W 19:21:37 10° NNW
Cosmos 1092 Rocket 3.9 19:14:00 10° S 19:20:16 70° E 19:26:36 10° NNE
Sich 1 3.5 19:21:23 10° SSW 19:25:46 62° W 19:29:41 13° N
USA 215 3.2 19:21:36 23° SE 19:25:58 90° SSW 19:32:35 10° NW
Cosmos 2237 Rocket 4.1 19:22:31 10° WSW 19:27:10 26° NW 19:31:51 10° N
Cosmos 2369 Rocket 3.8 19:27:26 10° N 19:29:27 19° NNE 19:29:27 19° NNE
Cosmos 1461 4.1 19:28:34 10° WSW 19:32:28 37° NW 19:33:37 30° NNW
Cosmos 1633 Rocket 3.6 19:28:55 10° SSW 19:33:15 58° W 19:36:07 20° N
SL-16 R/B 3.0 19:28:16 10° SW 19:33:45 50° WNW 19:37:58 17° N
Cosmos 2195 Rocket 4.3 19:39:26 10° S 19:45:29 72° E 19:46:13 65° NE
Lacrosse 5 4.2 19:48:50 10° NNW 19:50:06 13° N 19:50:06 13° N
CZ-3A R/B 3.2 19:55:16 10° NW 19:59:45 64° SW 20:01:30 43° SSE
Aureole 1 Rocket 4.4 19:55:52 10° SW 20:01:07 56° WNW 20:05:30 22° N
Spot 2 Rocket 4.2 19:57:52 10° S 20:02:46 51° W 20:07:42 10° NNW
Resurs 01 Rocket 2.7 20:03:50 43° W 20:03:50 43° W 20:07:59 10° NNW
CZ-4C R/B 4.4 20:00:19 10° NNW 20:02:59 18° N 20:02:59 18° N
Lacrosse 5 rocket 4.4 20:07:17 10° WSW 20:08:20 11° WSW 20:09:24 10° SW
USA 229 DEB 3.9 20:04:07 10° SW 20:10:55 65° NW 20:12:13 55° N
USA 229 3.9 20:04:12 10° SW 20:11:01 66° NW 20:12:17 56° N
ALOS 4.3 20:20:05 10° SSW 20:23:59 26° W 20:27:55 10° NW
ATLAS 5 CENTAUR R/B 4.5 20:22:25 10° NNW 20:23:23 14° N 20:23:23 14° N
